"2016-06-19 00:00:00",1735131,8.86,168.5,2.456,0.367,26.48,111.4151,28.53,29.52,21.79,0,111.5,12.96,29.38,130.5
"2016-06-19 00:00:30",1735132,8.22,166.9,1.745,0.499,26.48,111.4146,28.53,29.52,21.86,0,111.5,12.96,29.38,128.9
"2016-06-19 00:01:00",1735133,8.35,166,2.565,0.384,26.46,111.4146,28.53,29.52,21.73,0,111.5,12.96,29.38,128.0
"2016-06-19 00:01:30",1735134,8.14,165.4,2.671,0.23,26.46,111.4115,28.52,29.52,21.6,0,111.5,12.96,29.37,127.4
"2016-06-19 00:02:00",1735135,8.57,164.6,2.947,0.357,26.43,111.4067,28.51,29.51,21.53,0,111.5,12.96,29.36,126.6
"2016-06-19 00:02:30",1735136,8.98,168.9,1.982,0.172,26.46,111.4065,28.51,29.51,21.64,0,111.5,12.96,29.36,130.9
"2016-06-19 00:03:00",1735137,8.04,161.8,2.422,0.361,26.39,111.4065,28.51,29.5,21.75,0,111.5,12.96,29.36,123.8
"2016-06-19 00:03:30",1735138,8.36,161.9,1.943,0.624,26.43,111.4065,28.51,29.49,21.66,0,111.5,12.96,29.36,123.9
"2016-06-19 00:04:00",1735139,8.82,160.5,1.109,0.17,26.41,111.4065,28.51,29.49,21.27,0,111.5,12.96,29.36,122.5
"2016-06-19 00:04:30",1735140,8.83,162.1,1.97,0.253,26.44,111.4059,28.51,29.48,21.24,0,111.5,12.96,29.36,124.1
"2016-06-19 00:05:00",1735141,8.82,159.8,1.582,0.348,26.44,111.4045,28.51,29.48,21.4,0,111.5,12.97,29.36,121.8
"2016-06-19 00:05:30",1735142,10.11,164.8,1.803,0.445,26.61,111.398,28.49,29.48,22.17,0,111.5,12.96,29.34,126.8
"2016-06-19 00:06:00",1735143,9.93,161.7,3.769,0.545,26.64,111.395,28.48,29.48,22.64,0,111.5,12.96,29.33,123.7
"2016-06-19 00:06:30",1735144,9.03,171.5,2.234,0.536,26.57,111.3902,28.47,29.46,22.33,0,111.5,12.96,29.32,133.5
"2016-06-19 00:07:00",1735145,8.33,167.7,2.8,0.446,26.55,111.3885,28.46,29.46,22.37,0,111.5,12.96,29.32,129.7
"2016-06-19 00:07:30",1735146,8.53,170.8,2.694,0.458,26.56,111.3901,28.47,29.47,22.26,0,111.5,12.96,29.32,132.8
"2016-06-19 00:08:00",1735147,8.76,169.9,2.288,0.576,26.5,111.3853,28.46,29.46,21.87,0,111.5,12.96,29.31,131.9
"2016-06-19 00:08:30",1735148,8.64,172.6,5.003,0.426,26.58,111.3837,28.45,29.47,22.18,0,111.5,12.96,29.30,134.6
"2016-06-19 00:09:00",1735149,9.07,172.8,1.674,0.337,26.53,111.3831,28.45,29.45,21.76,0,111.5,12.96,29.30,134.8
"2016-06-19 00:09:30",1735150,8.79,174.5,2.077,0.267,26.48,111.3806,28.44,29.45,21.7,0,111.5,12.96,29.29,136.5
"2016-06-19 00:10:00",1735151,8.28,174.1,1.556,0.388,26.47,111.3755,28.43,29.45,21.63,0,111.5,12.96,29.28,136.1
"2016-06-19 00:10:30",1735152,9.11,169.5,1.545,0.328,26.51,111.3747,28.43,29.43,21.05,0,111.5,12.96,29.28,131.5
"2016-06-19 00:11:00",1735153,8.79,169.4,1.192,0.169,26.52,111.3766,28.43,29.44,20.91,0,111.5,12.96,29.28,131.4
"2016-06-19 00:11:30",1735154,8.33,171,1.628,0.222,26.54,111.3737,28.43,29.43,21.27,0,111.5,12.96,29.28,133.0
"2016-06-19 00:12:00",1735155,8.15,169.4,1.124,0.107,26.49,111.375,28.43,29.41,21.1,0,111.5,12.97,29.28,131.4
"2016-06-19 00:12:30",1735156,8.04,170.2,1.57,0.265,26.5,111.3748,28.43,29.41,20.91,0,111.5,12.97,29.28,132.2
"2016-06-19 00:13:00",1735157,8.18,170.8,1.649,0.232,26.52,111.3698,28.42,29.42,20.92,0,111.5,12.97,29.27,132.8
"2016-06-19 00:13:30",1735158,8.2,170,3.182,0.206,26.52,111.359,28.39,29.41,20.74,0,111.5,12.97,29.24,132.0
"2016-06-19 00:14:00",1735159,8.26,166.8,0.711,0.156,26.48,111.3525,28.37,29.4,20.7,0,111.5,12.97,29.22,128.8
"2016-06-19 00:14:30",1735160,8.09,169.8,1.672,0.118,26.46,111.3514,28.37,29.39,20.73,0,111.5,12.97,29.22,131.8
"2016-06-19 00:15:00",1735161,8.04,169.4,3.272,0.172,26.48,111.3499,28.36,29.39,20.85,0,111.5,12.97,29.22,131.4
"2016-06-19 00:15:30",1735162,7.739,170.6,2.508,0.361,26.47,111.3492,28.36,29.38,20.93,0,111.5,12.97,29.21,132.6
"2016-06-19 00:16:00",1735163,7.889,169.6,1.574,0.249,26.48,111.3461,28.36,29.37,20.9,0,111.5,12.97,29.21,131.6
"2016-06-19 00:16:30",1735164,8.11,169.6,1.4,0.122,26.5,111.3451,28.35,29.37,20.73,0,111.5,12.97,29.20,131.6
"2016-06-19 00:17:00",1735165,7.834,163.5,3.085,0.196,26.41,111.3462,28.36,29.37,20.71,0,111.5,12.97,29.21,125.5
"2016-06-19 00:17:30",1735166,6.871,164,1.44,0.155,26.35,111.344,28.35,29.35,20.77,0,111.5,12.97,29.20,126.0
"2016-06-19 00:18:00",1735167,7.014,161.1,4.909,0.178,26.33,111.346,28.35,29.37,21.12,0,111.5,12.97,29.21,123.1
"2016-06-19 00:18:30",1735168,7.714,162.1,5.541,0.699,26.39,111.3457,28.35,29.36,21.47,0,111.5,12.97,29.20,124.1
"2016-06-19 00:19:00",1735169,7.341,165.4,1.95,0.352,26.43,111.3493,28.36,29.37,21.12,0,111.5,12.97,29.21,127.4
"2016-06-19 00:19:30",1735170,7.364,163.3,2.842,0.207,26.37,111.3525,28.37,29.37,20.58,0,111.5,12.97,29.22,125.3
"2016-06-19 00:20:00",1735171,6.444,161.8,3.568,0.604,26.45,111.3541,28.38,29.37,21.27,0,111.5,12.97,29.23,123.8
"2016-06-19 00:20:30",1735172,8.01,167,5.357,0.93,26.41,111.3563,28.38,29.38,21.32,0,111.5,12.97,29.23,129.0
"2016-06-19 00:21:00",1735173,8.28,169.3,2.919,0.461,26.46,111.3554,28.38,29.36,20.73,0,111.5,12.97,29.23,131.3
"2016-06-19 00:21:30",1735174,7.382,164.1,1.574,0.239,26.36,111.359,28.39,29.37,20.5,0,111.5,12.97,29.24,126.1
"2016-06-19 00:22:00",1735175,8.01,166.8,2.221,0.336,26.38,111.3623,28.4,29.38,20.2,0,111.5,12.97,29.25,128.8
"2016-06-19 00:22:30",1735176,8.25,167.4,2.198,0.17,26.43,111.3693,28.41,29.38,20.25,0,111.5,12.97,29.27,129.4
"2016-06-19 00:23:00",1735177,7.908,166.1,3.235,0.33,26.42,111.3654,28.4,29.4,20.41,0,111.5,12.96,29.26,128.1
"2016-06-19 00:23:30",1735178,8.66,166.3,1.878,0.324,26.46,111.3718,28.42,29.37,20.26,0,111.5,12.96,29.27,128.3
"2016-06-19 00:24:00",1735179,8.98,170.1,1.322,0.202,26.55,111.3712,28.42,29.38,20.55,0,111.5,12.96,29.27,132.1
"2016-06-19 00:24:30",1735180,8.66,172.2,1.473,0.417,26.56,111.3709,28.42,29.38,20.67,0,111.5,12.96,29.27,134.2
"2016-06-19 00:25:00",1735181,8.37,170.2,3.884,0.191,26.54,111.3677,28.41,29.39,20.69,0,111.5,12.96,29.26,132.2
"2016-06-19 00:25:30",1735182,8.31,166.9,2.057,0.203,26.52,111.3672,28.41,29.39,20.71,0,111.5,12.96,29.26,128.9
"2016-06-19 00:26:00",1735183,8.21,166.3,1.369,0.161,26.5,111.3698,28.42,29.38,20.55,0,111.5,12.96,29.27,128.3
"2016-06-19 00:26:30",1735184,8.4,166.7,1.366,0.325,26.53,111.3689,28.41,29.38,20.61,0,111.5,12.96,29.26,128.7
"2016-06-19 00:27:00",1735185,8.39,163.4,1.721,0.438,26.47,111.371,28.42,29.39,20.69,0,111.5,12.96,29.27,125.4
"2016-06-19 00:27:30",1735186,8.16,163.4,1.525,0.287,26.47,111.3676,28.41,29.39,20.7,0,111.5,12.96,29.26,125.4
"2016-06-19 00:28:00",1735187,8.11,162.7,5.906,0.412,26.46,111.3665,28.41,29.39,20.81,0,111.5,12.96,29.26,124.7
"2016-06-19 00:28:30",1735188,7.736,158.8,4.829,0.681,26.37,111.3651,28.4,29.38,20.68,0,111.5,12.96,29.25,120.8
"2016-06-19 00:29:00",1735189,8.07,159,2.129,0.364,26.36,111.366,28.41,29.37,19.73,0,111.5,12.97,29.26,121.0
"2016-06-19 00:29:30",1735190,8,161.5,4,0.26,26.36,111.3672,28.41,29.37,19.69,0,111.5,12.97,29.26,123.5
"2016-06-19 00:30:00",1735191,8.17,159.6,2.106,0.29,26.36,111.367,28.41,29.39,19.18,0,111.5,12.97,29.26,121.6
"2016-06-19 00:30:30",1735192,8.7,160.3,1.416,0.353,26.45,111.367,28.41,29.38,19.18,0,111.5,12.97,29.26,122.3
"2016-06-19 00:31:00",1735193,8.52,163.5,1.809,0.231,26.44,111.367,28.41,29.37,19.37,0,111.5,12.97,29.26,125.5
"2016-06-19 00:31:30",1735194,8.44,164,1.627,0.175,26.46,111.3666,28.41,29.36,19.53,0,111.5,12.97,29.26,126.0
"2016-06-19 00:32:00",1735195,8.67,161.3,1.268,0.218,26.42,111.367,28.41,29.38,19.3,0,111.5,12.97,29.26,123.3
"2016-06-19 00:32:30",1735196,8.34,164.3,1.572,0.227,26.47,111.3673,28.41,29.37,19.5,0,111.5,12.97,29.26,126.3
"2016-06-19 00:33:00",1735197,8.3,166.5,1.718,0.255,26.53,111.3675,28.41,29.38,19.66,0,111.5,12.97,29.26,128.5
"2016-06-19 00:33:30",1735198,7.663,168.6,2.21,0.366,26.51,111.3666,28.41,29.37,19.71,0,111.5,12.97,29.26,130.6
"2016-06-19 00:34:00",1735199,7.909,163.6,1.594,0.515,26.47,111.3673,28.41,29.37,19.55,0,111.5,12.97,29.26,125.6
"2016-06-19 00:34:30",1735200,8.94,168.7,3.834,0.322,26.54,111.3676,28.41,29.38,19.61,0,111.5,12.97,29.26,130.7
"2016-06-19 00:35:00",1735201,8.96,167.3,2.553,0.328,26.51,111.3673,28.41,29.38,19.08,0,111.5,12.97,29.26,129.3
"2016-06-19 00:35:30",1735202,8.83,162.3,1.78,0.465,26.43,111.3679,28.41,29.39,19.18,0,111.5,12.97,29.26,124.3
"2016-06-19 00:36:00",1735203,8.27,163.5,1.826,0.152,26.47,111.3685,28.41,29.37,19.01,0,111.5,12.97,29.26,125.5
"2016-06-19 00:36:30",1735204,8.45,166.1,1.202,0.304,26.45,111.3694,28.42,29.39,19.34,0,111.5,12.97,29.27,128.1
"2016-06-19 00:37:00",1735205,8.25,164.4,2.165,0.3,26.42,111.3682,28.41,29.38,19.33,0,111.5,12.97,29.26,126.4
"2016-06-19 00:37:30",1735206,8.6,163.3,1.678,0.354,26.44,111.3675,28.41,29.37,18.75,0,111.5,12.97,29.26,125.3
"2016-06-19 00:38:00",1735207,8.51,163.4,2.608,0.372,26.44,111.3698,28.42,29.37,18.51,0,111.5,12.97,29.27,125.4
"2016-06-19 00:38:30",1735208,8.28,161.9,2.502,0.252,26.41,111.3707,28.42,29.38,18.1,0,111.5,12.97,29.27,123.9
"2016-06-19 00:39:00",1735209,8.11,163.8,2.83,0.406,26.43,111.3694,28.42,29.39,17.61,0,111.5,12.97,29.27,125.8
"2016-06-19 00:39:30",1735210,8.07,158.5,1.3,0.334,26.34,111.3682,28.41,29.38,17.76,0,111.5,12.98,29.26,120.5
"2016-06-19 00:40:00",1735211,8.27,157.5,1.582,0.191,26.37,111.3713,28.42,29.37,17.76,0,111.5,12.97,29.27,119.5
"2016-06-19 00:40:30",1735212,8.54,162.1,3.429,0.355,26.4,111.3723,28.42,29.39,17.76,0,111.5,12.96,29.27,124.1
"2016-06-19 00:41:00",1735213,8.14,163,3.229,0.588,26.37,111.3737,28.43,29.37,17.79,0,111.5,12.96,29.28,125.0
"2016-06-19 00:41:30",1735214,8.43,159.2,1.444,0.194,26.36,111.3737,28.43,29.38,17.86,0,111.5,12.96,29.28,121.2
"2016-06-19 00:42:00",1735215,8.26,165.2,2.683,0.25,26.51,111.3773,28.44,29.37,18.19,0,111.4,12.96,29.29,127.2
"2016-06-19 00:42:30",1735216,8.85,170.4,1.347,0.325,26.55,111.3791,28.44,29.39,18.37,0,111.5,12.96,29.29,132.4
"2016-06-19 00:43:00",1735217,8.83,166.3,2.166,0.203,26.55,111.3813,28.45,29.4,18.26,0,111.5,12.96,29.30,128.3
"2016-06-19 00:43:30",1735218,8.56,163.9,1.899,0.246,26.49,111.3802,28.44,29.38,18.22,0,111.5,12.96,29.29,125.9
"2016-06-19 00:44:00",1735219,8.34,163.1,1.791,0.209,26.48,111.3817,28.45,29.4,18.37,0,111.5,12.96,29.30,125.1
"2016-06-19 00:44:30",1735220,8.34,162.6,1.766,0.304,26.45,111.3807,28.44,29.4,18.44,0,111.5,12.96,29.30,124.6
"2016-06-19 00:45:00",1735221,8.52,167,1.623,0.184,26.56,111.3799,28.44,29.4,18.38,0,111.5,12.96,29.29,129.0
"2016-06-19 00:45:30",1735222,8.3,167.3,1.449,0.179,26.56,111.3777,28.44,29.4,18.7,0,111.4,12.96,29.29,129.3
"2016-06-19 00:46:00",1735223,7.984,167.7,1.9,0.344,26.53,111.3775,28.44,29.41,18.55,0,111.4,12.97,29.29,129.7
"2016-06-19 00:46:30",1735224,8.59,166,1.936,0.215,26.54,111.3769,28.43,29.41,18.24,0,111.5,12.97,29.29,128.0
"2016-06-19 00:47:00",1735225,8.29,162.8,1.657,0.178,26.44,111.3766,28.43,29.4,18.21,0,111.4,12.97,29.28,124.8
"2016-06-19 00:47:30",1735226,8.31,163.5,1.208,0.128,26.48,111.3766,28.43,29.39,17.67,0,111.4,12.98,29.28,125.5
"2016-06-19 00:48:00",1735227,8.25,166.3,2.154,0.219,26.52,111.376,28.43,29.39,18.2,0,111.4,12.98,29.28,128.3
"2016-06-19 00:48:30",1735228,7.81,168.8,4.004,0.241,26.54,111.3766,28.43,29.4,18.54,0,111.4,12.98,29.28,130.8
"2016-06-19 00:49:00",1735229,8.35,163.2,3.443,0.32,26.47,111.3766,28.43,29.39,18.37,0,111.5,12.98,29.28,125.2
"2016-06-19 00:49:30",1735230,8.24,162.4,2.199,0.242,26.47,111.3766,28.43,29.4,18.21,0,111.4,12.98,29.28,124.4
"2016-06-19 00:50:00",1735231,8.35,163.4,1.009,0.279,26.48,111.3766,28.43,29.39,18.04,0,111.4,12.98,29.28,125.4
"2016-06-19 00:50:30",1735232,8.9,164.3,1.201,0.625,26.53,111.3766,28.43,29.38,18.07,0,111.5,12.98,29.28,126.3
"2016-06-19 00:51:00",1735233,8.84,165.1,1.924,0.223,26.57,111.3766,28.43,29.38,18.14,0,111.4,12.98,29.28,127.1
"2016-06-19 00:51:30",1735234,9.35,166.1,1.241,0.196,26.6,111.3766,28.43,29.39,18.23,0,111.4,12.98,29.28,128.1
"2016-06-19 00:52:00",1735235,9.11,167.2,1.148,0.269,26.64,111.3766,28.43,29.38,18.23,0,111.4,12.98,29.28,129.2
"2016-06-19 00:52:30",1735236,9.03,166.1,1.746,0.138,26.63,111.3764,28.43,29.37,18.2,0,111.4,12.98,29.28,128.1
"2016-06-19 00:53:00",1735237,9.06,165.7,1.614,0.329,26.59,111.3764,28.43,29.37,17.98,0,111.4,12.98,29.28,127.7
"2016-06-19 00:53:30",1735238,9.31,169.5,1.759,0.22,26.64,111.3761,28.43,29.38,17.86,0,111.4,12.98,29.28,131.5
"2016-06-19 00:54:00",1735239,9.47,167.4,1.432,0.114,26.68,111.3752,28.43,29.38,17.69,0,111.4,12.98,29.28,129.4
"2016-06-19 00:54:30",1735240,9.43,166.7,0.507,0.204,26.65,111.3733,28.42,29.36,17.41,0,111.4,12.98,29.28,128.7
"2016-06-19 00:55:00",1735241,9.21,164.7,1.315,0.157,26.6,111.373,28.42,29.37,17.45,0,111.4,12.98,29.28,126.7
"2016-06-19 00:55:30",1735242,9.16,167,0.768,0.153,26.63,111.3727,28.42,29.36,17.64,0,111.4,12.98,29.27,129.0
"2016-06-19 00:56:00",1735243,8.96,164.3,1.521,0.217,26.6,111.373,28.42,29.37,17.51,0,111.4,12.98,29.28,126.3
"2016-06-19 00:56:30",1735244,8.93,165.7,1.489,0.27,26.58,111.3713,28.42,29.35,17.52,0,111.4,12.98,29.27,127.7
"2016-06-19 00:57:00",1735245,8.88,165,2.124,0.107,26.62,111.3713,28.42,29.36,17.64,0,111.4,12.98,29.27,127.0
"2016-06-19 00:57:30",1735246,9.06,166.3,2.547,0.273,26.61,111.3716,28.42,29.37,17.87,0,111.4,12.98,29.27,128.3
"2016-06-19 00:58:00",1735247,8.58,168.9,0.822,0.296,26.67,111.3716,28.42,29.37,17.89,0,111.4,12.97,29.27,130.9
"2016-06-19 00:58:30",1735248,9.04,166,1.341,0.249,26.65,111.3716,28.42,29.36,17.94,0,111.4,12.97,29.27,128.0
"2016-06-19 00:59:00",1735249,9.11,166.6,0.883,0.294,26.65,111.3696,28.42,29.36,17.81,0,111.4,12.97,29.27,128.6
"2016-06-19 00:59:30",1735250,9.21,167.6,0.813,0.146,26.71,111.3682,28.41,29.36,17.8,0,111.4,12.97,29.26,129.6
"2016-06-19 01:00:00",1735251,9.14,168,0.733,0.138,26.73,111.3674,28.41,29.36,17.86,0,111.4,12.97,29.26,130.0
"2016-06-19 01:00:30",1735252,9.11,169.2,1.207,0.102,26.72,111.3654,28.4,29.37,17.77,0,111.4,12.97,29.26,131.2
"2016-06-19 01:01:00",1735253,9.05,171.3,1.044,0.209,26.7,111.3643,28.4,29.36,18.1,0,111.4,12.96,29.25,133.3
"2016-06-19 01:01:30",1735254,9.07,170.1,1.729,0.146,26.72,111.3606,28.39,29.35,18.02,0,111.4,12.97,29.24,132.1
"2016-06-19 01:02:00",1735255,8.82,171.5,0.95,0.235,26.69,111.3592,28.39,29.36,18.26,0,111.4,12.96,29.24,133.5
"2016-06-19 01:02:30",1735256,8.53,171.9,1.701,0.358,26.65,111.3545,28.38,29.35,18.52,0,111.4,12.97,29.23,133.9
"2016-06-19 01:03:00",1735257,9.17,169.8,1.097,0.196,26.74,111.3539,28.38,29.37,18.39,0,111.4,12.97,29.23,131.8
"2016-06-19 01:03:30",1735258,9.15,169.5,0.752,0.212,26.72,111.3514,28.37,29.35,18.4,0,111.4,12.97,29.22,131.5
"2016-06-19 01:04:00",1735259,9.62,169.2,0.557,0.151,26.73,111.3503,28.37,29.37,18.31,0,111.4,12.98,29.22,131.2
"2016-06-19 01:04:30",1735260,9.64,170.1,0.851,0.186,26.74,111.3463,28.36,29.34,18.31,0,111.4,12.98,29.21,132.1
"2016-06-19 01:05:00",1735261,9.8,172.3,0.772,0.151,26.74,111.3435,28.35,29.35,18.31,0,111.4,12.98,29.20,134.3
"2016-06-19 01:05:30",1735262,9.35,171.4,1.396,0.32,26.72,111.3433,28.35,29.33,18.34,0,111.4,12.98,29.20,133.4
"2016-06-19 01:06:00",1735263,8.85,170.7,0.66,0.156,26.78,111.343,28.35,29.33,18.42,0,111.4,12.98,29.20,132.7
"2016-06-19 01:06:30",1735264,9.43,170.9,1.137,0.115,26.74,111.343,28.35,29.34,18.38,0,111.4,12.98,29.20,132.9
"2016-06-19 01:07:00",1735265,9.15,173,1.122,0.192,26.76,111.343,28.35,29.32,18.54,0,111.4,12.98,29.20,135.0
"2016-06-19 01:07:30",1735266,9.14,173.9,1.058,0.234,26.72,111.343,28.35,29.31,18.29,0,111.4,12.98,29.20,135.9
"2016-06-19 01:08:00",1735267,8.98,173.1,0.816,0.291,26.71,111.343,28.35,29.32,18.03,0,111.4,12.98,29.20,135.1
"2016-06-19 01:08:30",1735268,9.08,173.4,0.97,0.11,26.76,111.3419,28.34,29.31,17.56,0,111.4,12.98,29.20,135.4
"2016-06-19 01:09:00",1735269,8.92,173.7,1.111,0.115,26.73,111.3421,28.34,29.3,17.69,0,111.4,12.98,29.20,135.7
"2016-06-19 01:09:30",1735270,8.88,174,0.599,0.143,26.75,111.3402,28.34,29.3,17.01,0,111.4,12.98,29.19,136.0
"2016-06-19 01:10:00",1735271,9.25,173.5,0.712,0.195,26.73,111.3399,28.34,29.3,16.82,0,111.4,12.98,29.19,135.5
"2016-06-19 01:10:30",1735272,9.47,173.9,0.527,0.151,26.72,111.3396,28.34,29.3,16.64,0,111.4,12.98,29.19,135.9
"2016-06-19 01:11:00",1735273,9.59,174.5,0.714,0.1,26.69,111.3405,28.34,29.3,16.28,0,111.4,12.98,29.19,136.5
"2016-06-19 01:11:30",1735274,9.9,175.6,0.687,0.317,26.74,111.3413,28.34,29.29,16.61,0,111.4,12.98,29.19,137.6
"2016-06-19 01:12:00",1735275,10.09,176.9,1.177,0.113,26.67,111.341,28.34,29.31,17.27,0,111.4,12.98,29.19,138.9
"2016-06-19 01:12:30",1735276,9.93,176.8,1.214,0.103,26.69,111.3419,28.34,29.3,17.42,0,111.4,12.98,29.20,138.8
"2016-06-19 01:13:00",1735277,9.71,176.8,1.445,0.19,26.72,111.3422,28.34,29.31,17.35,0,111.4,12.98,29.20,138.8
"2016-06-19 01:13:30",1735278,9.75,177.5,0.657,0.125,26.71,111.3433,28.35,29.3,17.88,0,111.4,12.98,29.20,139.5
"2016-06-19 01:14:00",1735279,9.86,177.7,1.697,0.198,26.68,111.3433,28.35,29.3,17.18,0,111.4,12.98,29.20,139.7
"2016-06-19 01:14:30",1735280,9.79,178.5,2.116,0.242,26.72,111.343,28.35,29.3,17.31,0,111.4,12.98,29.20,140.5
"2016-06-19 01:15:00",1735281,9.83,180.5,0.886,0.107,26.71,111.3447,28.35,29.32,17.68,0,111.4,12.98,29.20,142.5
"2016-06-19 01:15:30",1735282,9.82,179.4,0.812,0.109,26.69,111.3441,28.35,29.31,17.63,0,111.4,12.97,29.20,141.4
"2016-06-19 01:16:00",1735283,9.44,177.8,1.273,0.115,26.74,111.3446,28.35,29.32,17.73,0,111.4,12.97,29.20,139.8
"2016-06-19 01:16:30",1735284,9.33,178.2,0.673,0.135,26.71,111.3473,28.36,29.31,17.53,0,111.4,12.97,29.21,140.2
"2016-06-19 01:17:00",1735285,9.23,176.9,1.246,0.209,26.76,111.3466,28.36,29.31,17.52,0,111.4,12.97,29.21,138.9
"2016-06-19 01:17:30",1735286,9.39,175.1,0.73,0.193,26.74,111.3477,28.36,29.29,16.48,0,111.4,12.97,29.21,137.1
"2016-06-19 01:18:00",1735287,9.44,176.4,0.844,0.146,26.72,111.3461,28.36,29.3,16.18,0,111.4,12.97,29.21,138.4
"2016-06-19 01:18:30",1735288,9.41,175.4,0.843,0.13,26.72,111.3494,28.36,29.33,15.98,0,111.4,12.97,29.21,137.4
"2016-06-19 01:19:00",1735289,9.53,174.8,0.344,0.164,26.8,111.3493,28.36,29.31,16,0,111.4,12.97,29.21,136.8
"2016-06-19 01:19:30",1735290,9.81,174.4,0.684,0.107,26.8,111.3503,28.37,29.31,16.64,0,111.4,12.97,29.22,136.4
"2016-06-19 01:20:00",1735291,9.57,176.1,0.579,0.103,26.81,111.3528,28.37,29.32,17.05,0,111.4,12.97,29.22,138.1
"2016-06-19 01:20:30",1735292,9.58,177.4,0.57,0.18,26.79,111.3544,28.38,29.32,17.55,0,111.4,12.97,29.23,139.4
"2016-06-19 01:21:00",1735293,9.55,176.7,0.53,0.161,26.8,111.3551,28.38,29.33,17.98,0,111.4,12.98,29.23,138.7
"2016-06-19 01:21:30",1735294,9.68,178.3,1.107,0.142,26.8,111.3567,28.38,29.31,18.16,0,111.4,12.98,29.23,140.3
"2016-06-19 01:22:00",1735295,9.62,178.7,1.24,0.257,26.77,111.3583,28.39,29.32,18.04,0,111.4,12.98,29.24,140.7
"2016-06-19 01:22:30",1735296,9.21,176.5,1.885,0.241,26.74,111.3595,28.39,29.32,17.99,0,111.4,12.98,29.24,138.5
"2016-06-19 01:23:00",1735297,9.35,176.5,1.145,0.113,26.79,111.3573,28.38,29.32,18.06,0,111.4,12.98,29.23,138.5
"2016-06-19 01:23:30",1735298,9.7,178.2,1.367,0.257,26.79,111.353,28.37,29.32,18.27,0,111.4,12.98,29.22,140.2
"2016-06-19 01:24:00",1735299,9.65,178.1,0.757,0.129,26.84,111.351,28.37,29.3,18.47,0,111.4,12.98,29.22,140.1
"2016-06-19 01:24:30",1735300,9.76,176.4,1.144,0.126,26.85,111.3466,28.36,29.31,18.25,0,111.4,12.98,29.21,138.4
"2016-06-19 01:25:00",1735301,10.03,178.5,0.982,0.121,26.82,111.3417,28.34,29.3,18.37,0,111.4,12.98,29.19,140.5
"2016-06-19 01:25:30",1735302,9.8,179.7,1.064,0.224,26.84,111.3387,28.34,29.31,18.45,0,111.4,12.98,29.19,141.7
"2016-06-19 01:26:00",1735303,9.67,180.8,0.641,0.121,26.84,111.3391,28.34,29.3,18.44,0,111.4,12.98,29.19,142.8
"2016-06-19 01:26:30",1735304,9.53,178.5,2.248,0.172,26.81,111.3394,28.34,29.3,18.37,0,111.4,12.98,29.19,140.5
"2016-06-19 01:27:00",1735305,9.3,178.9,1.173,0.216,26.79,111.3377,28.33,29.29,18.38,0,111.4,12.98,29.18,140.9
"2016-06-19 01:27:30",1735306,9.51,178.6,0.956,0.205,26.77,111.3371,28.33,29.28,18.45,0,111.4,12.98,29.18,140.6
"2016-06-19 01:28:00",1735307,9.76,178.2,0.967,0.127,26.82,111.3374,28.33,29.29,18.6,0,111.4,12.98,29.18,140.2
"2016-06-19 01:28:30",1735308,9.61,175.8,0.941,0.162,26.84,111.3374,28.33,29.29,18.74,0,111.4,12.98,29.18,137.8
"2016-06-19 01:29:00",1735309,9.87,175.5,0.737,0.163,26.86,111.3374,28.33,29.29,18.88,0,111.4,12.98,29.18,137.5
"2016-06-19 01:29:30",1735310,10.16,178.1,0.679,0.183,26.84,111.3374,28.33,29.28,18.91,0,111.4,12.98,29.18,140.1
"2016-06-19 01:30:00",1735311,10,179.4,0.659,0.094,26.85,111.3372,28.33,29.27,18.88,0,111.4,12.98,29.18,141.4
"2016-06-19 01:30:30",1735312,9.86,179.6,0.747,0.21,26.83,111.3352,28.33,29.28,18.95,0,111.4,12.98,29.18,141.6
"2016-06-19 01:31:00",1735313,9.52,180.1,1.498,0.162,26.82,111.3257,28.3,29.27,18.96,0,111.4,12.98,29.15,142.1
"2016-06-19 01:31:30",1735314,9.52,179.9,2.199,0.183,26.85,111.3195,28.29,29.26,18.96,0,111.4,12.98,29.14,141.9
"2016-06-19 01:32:00",1735315,9.79,181.2,1.076,0.158,26.86,111.3142,28.27,29.26,18.85,0,111.4,12.98,29.12,143.2
"2016-06-19 01:32:30",1735316,9.64,185.4,1.329,0.253,27.01,111.3128,28.27,29.24,18.59,0,111.4,12.98,29.12,147.4
"2016-06-19 01:33:00",1735317,9.28,183.4,1.394,0.285,26.9,111.3109,28.26,29.25,18.61,0,111.4,12.98,29.11,145.4
"2016-06-19 01:33:30",1735318,9.68,182,1.085,0.236,26.87,111.3098,28.26,29.23,18.82,0,111.4,12.98,29.11,144.0
"2016-06-19 01:34:00",1735319,9.59,182.8,1.792,0.188,26.88,111.3081,28.26,29.25,18.96,0,111.4,12.97,29.11,144.8
"2016-06-19 01:34:30",1735320,9.5,184.8,1.433,0.226,26.99,111.3087,28.26,29.23,18.95,0,111.4,12.97,29.11,146.8
"2016-06-19 01:35:00",1735321,9.35,184,1.325,0.219,26.92,111.3077,28.26,29.23,18.93,0,111.4,12.97,29.11,146.0
"2016-06-19 01:35:30",1735322,9.19,185.4,1.689,0.148,26.96,111.3071,28.25,29.22,19.1,0,111.4,12.97,29.11,147.4
"2016-06-19 01:36:00",1735323,9.35,186.8,0.586,0.09,27.06,111.3068,28.25,29.23,18.98,0,111.4,12.97,29.10,148.8
"2016-06-19 01:36:30",1735324,9.35,186.5,0.598,0.116,27,111.3078,28.26,29.24,19.11,0,111.4,12.98,29.11,148.5
"2016-06-19 01:37:00",1735325,9.26,187.4,0.575,0.157,26.96,111.3111,28.27,29.24,19.37,0,111.4,12.97,29.12,149.4
"2016-06-19 01:37:30",1735326,9.3,187.8,0.783,0.185,27.03,111.3103,28.26,29.23,19.18,0,111.4,12.98,29.11,149.8
"2016-06-19 01:38:00",1735327,9.1,187.4,1.128,0.314,27.02,111.3125,28.27,29.23,19.26,0,111.4,12.98,29.12,149.4
"2016-06-19 01:38:30",1735328,9.56,186.7,0.9,0.18,27.03,111.3131,28.27,29.23,19.29,0,111.4,12.98,29.12,148.7
"2016-06-19 01:39:00",1735329,9.55,186.4,0.737,0.107,27.04,111.3128,28.27,29.24,19,0,111.4,12.98,29.12,148.4
"2016-06-19 01:39:30",1735330,10.05,187.7,0.337,0.185,27.1,111.3131,28.27,29.24,18.9,0,111.4,12.98,29.12,149.7
"2016-06-19 01:40:00",1735331,9.85,187.8,0.601,0.285,27.13,111.3131,28.27,29.23,18.82,0,111.4,12.98,29.12,149.8
"2016-06-19 01:40:30",1735332,9.57,187,0.622,0.074,27.07,111.3128,28.27,29.24,18.76,0,111.4,12.98,29.12,149.0
"2016-06-19 01:41:00",1735333,9.34,186.2,0.575,0.126,27.08,111.3131,28.27,29.23,18.91,0,111.4,12.98,29.12,148.2
"2016-06-19 01:41:30",1735334,9.22,185.3,0.932,0.122,27.02,111.3131,28.27,29.24,19.05,0,111.4,12.98,29.12,147.3
"2016-06-19 01:42:00",1735335,9.27,187.9,1.214,0.356,27.02,111.3131,28.27,29.24,18.95,0,111.4,12.98,29.12,149.9
"2016-06-19 01:42:30",1735336,9.28,188.7,1.616,0.273,27.03,111.3131,28.27,29.24,18.96,0,111.4,12.98,29.12,150.7
"2016-06-19 01:43:00",1735337,9.58,187.8,0.606,0.129,27.06,111.3131,28.27,29.23,18.84,0,111.4,12.98,29.12,149.8
"2016-06-19 01:43:30",1735338,9.54,188,1.201,0.164,27.12,111.3131,28.27,29.25,18.39,0,111.4,12.98,29.12,150.0
"2016-06-19 01:44:00",1735339,9.01,189.9,1.235,0.156,27.09,111.3131,28.27,29.24,18.42,0,111.4,12.99,29.12,151.9
"2016-06-19 01:44:30",1735340,8.68,189.1,0.631,0.146,27.1,111.3131,28.27,29.24,18.31,0,111.4,12.98,29.12,151.1
"2016-06-19 01:45:00",1735341,9.04,190.1,1.239,0.146,27.03,111.3131,28.27,29.23,18.36,0,111.4,12.98,29.12,152.1
"2016-06-19 01:45:30",1735342,9.51,189.5,2.224,0.192,27.1,111.3131,28.27,29.24,18.47,0,111.4,12.99,29.12,151.5
"2016-06-19 01:46:00",1735343,9.15,189.5,1.866,0.221,27.07,111.3131,28.27,29.24,18.42,0,111.4,12.99,29.12,151.5
"2016-06-19 01:46:30",1735344,9.15,187.9,0.687,0.128,27.1,111.3131,28.27,29.24,18.47,0,111.4,12.99,29.12,149.9
"2016-06-19 01:47:00",1735345,8.97,187.8,1.263,0.199,27.05,111.3131,28.27,29.24,18.63,0,111.4,12.99,29.12,149.8
"2016-06-19 01:47:30",1735346,8.8,188.7,1.136,0.306,27.04,111.3131,28.27,29.24,18.72,0,111.4,12.99,29.12,150.7